Regional Weather Roundup
Issued by NWS Cleveland, OH

Home | Current Version | Previous Version | Text Only | Print | Product List | Glossary Off
Versions: 1 2 3 4 5 6 7 8 9 10 11 12 13 14 15 16 17 18 19 20 21 22 23 24 25 26 27 28 29 30 31 32 33 34 35 36 37 38 39 40 41 42 43 44 45 46 47 48 49 50

000
ASUS41 KCLE 290200
RWRCLE
OHIO REGIONAL WEATHER ROUNDUP
NATIONAL WEATHER SERVICE WILMINGTON, OH
1000 PM EDT TUE JUL 28 2015

NOTE: "FAIR" INDICATES FEW OR NO CLOUDS BELOW 12,000 FEET WITH NO
SIGNIFICANT WEATHER AND/OR OBSTRUCTIONS TO VISIBILITY.

OHZ001>008-015>018-024>027-034-035-043-044-290300-
   NORTHWEST OHIO

CITY           SKY/WX    TMP DP  RH WIND       PRES   REMARKS
DEFIANCE       CLEAR     79  66  64 E6        29.98R
FINDLAY        CLEAR     79  65  62 E7        29.97R
TOLEDO EXPRESS LGT RAIN  71  64  78 CALM      29.98R
TOLEDO EXEC    CLEAR     77  65  66 E5        29.99R
LIMA           PTCLDY    74  69  85 CALM      29.98R
$$

OHZ009>014-019>023-028>033-038-089-290300-
   NORTHEAST OHIO

CITY           SKY/WX    TMP DP  RH WIND       PRES   REMARKS
CLE-HOPKINS    MOCLDY    81  60  48 E9        30.00R
CLE-LAKEFRONT  MOCLDY    82  59  45 E7        29.97R
CUY CO. ARPT   MOCLDY    79  63  57 SE6       30.00S
LORAIN-ELYRIA  PTCLDY    75  62  64 E6        29.99R
ASHTABULA      PTCLDY    70  65  84 CALM      30.01R
AKRON-CANTON   PTCLDY    77  64  64 NE5       30.01R
WOOSTER        NOT AVBL
MANSFIELD      PTCLDY    74  67  78 NE7       30.00R
YOUNGSTOWN     MOCLDY    75  65  70 NE6       30.01R
$$

OHZ042-051>053-060>062-070>072-077>081-290300-
  SOUTHWEST OHIO

CITY           SKY/WX    TMP DP  RH WIND       PRES   REMARKS
CINC-COVINGTON MOCLDY    80  72  76 CALM      29.97R
CINC-LUNKEN    PTCLDY    77  75  93 CALM      29.95R
HAMILTON       LGT RAIN  77  74  90 CALM      29.96R
DAYTON         NOT AVBL
WRIGHT-PAT AFB PTCLDY    80  74  79 E2        29.97R
DAYTON GENERAL MOCLDY    81  70  69 CALM      29.97R
WILMINGTON     MOCLDY    78  72  81 E5        29.97R
$$

OHZ036-037-039>041-045>050-054>059-063>069-073>076-082>088-290300-
  CENTRAL AND SOUTHEAST OHIO

CITY           SKY/WX    TMP DP  RH WIND       PRES   REMARKS
COLUMBUS       MOCLDY    79  69  71 E5        29.96R
OSU AIRPORT    MOCLDY    81  69  67 E3        29.97R
BOLTON FIELD   NOT AVBL
RICKENBACK AFB NOT AVBL
NEWARK         MOCLDY    76  71  85 CALM      29.98R
MARION         PTCLDY    77  69  76 NE3       29.98R
LANCASTER      PTCLDY    74  71  91 CALM      29.98R FOG
ZANESVILLE     PTCLDY    76  70  82 CALM      29.98R
NEW PHILLY     PTCLDY    73  70  90 CALM      30.00R FOG
$$



USA.gov is the U.S. government's official web portal to all federal, state and local government web resources and services.